This is the latest recevied weather packets stored in our database for station/object K5BOU. If no packets are shown the sender has not sent any weather packets the latest 10 day(s).
| Time | Temp. | Humidity | Pressure | Rain* | Wind** | Luminosity | Snow |
|---|---|---|---|---|---|---|---|
| 1788301128 | 32.22° C | 65% | 1010.9 hPa | 0 mm | - | 98 W/m² | - |
| 1788300824 | 32.22° C | 66% | 1011.2 hPa | 0 mm | - | 102 W/m² | - |
| 1788300524 | 32.22° C | 65% | 1011 hPa | 0 mm | - | 105 W/m² | - |
| 1788300223 | 32.22° C | 65% | 1011.1 hPa | 0 mm | - | 108 W/m² | - |
| 1788299922 | 32.22° C | 64% | 1011 hPa | 0 mm | - | 110 W/m² | - |
| 1788299621 | 32.22° C | 66% | 1011.2 hPa | 0 mm | - | 110 W/m² | - |
| 1788299320 | 32.22° C | 65% | 1011.5 hPa | 0 mm | - | 111 W/m² | - |
| 1788299019 | 32.78° C | 64% | 1011.4 hPa | 0 mm | - | 115 W/m² | - |
| 1788298719 | 32.78° C | 65% | 1011.5 hPa | 0 mm | - | 123 W/m² | - |
| 1788298414 | 32.78° C | 65% | 1011.7 hPa | 0 mm | - | 134 W/m² | - |
| 1788298108 | 32.78° C | 66% | 1011.7 hPa | 0 mm | - | 151 W/m² | - |
| 1788297804 | 32.78° C | 66% | 1011.4 hPa | 0 mm | - | 180 W/m² | - |
| 1788297500 | 33.33° C | 65% | 1011.4 hPa | 0 mm | - | 201 W/m² | - |
| 1788297196 | 33.33° C | 64% | 1011.2 hPa | 0 mm | - | 220 W/m² | - |
| 1788296891 | 33.33° C | 65% | 1011.3 hPa | 0 mm | - | 248 W/m² | - |
| 1788296587 | 33.89° C | 64% | 1011.2 hPa | 0 mm | - | 273 W/m² | - |
| 1788296283 | 33.89° C | 65% | 1011.4 hPa | 0 mm | - | 345 W/m² | - |
| 1788295982 | 33.89° C | 65% | 1011.2 hPa | 0 mm | - | 359 W/m² | - |
| 1788295678 | 33.89° C | 65% | 1011.3 hPa | 0 mm | - | 416 W/m² | - |
| 1788295374 | 34.44° C | 64% | 1011.3 hPa | 0 mm | - | 496 W/m² | - |
| 1788295074 | 34.44° C | 64% | 1011.5 hPa | 0 mm | - | 477 W/m² | - |
| 1788294774 | 33.89° C | 64% | 1011.5 hPa | 0 mm | - | 524 W/m² | - |
| 1788294468 | 34.44° C | 64% | 1011.5 hPa | 0 mm | - | 484 W/m² | - |
| 1788294163 | 33.89° C | 65% | 1011.7 hPa | 0 mm | - | 326 W/m² | - |
| 1788293860 | 34.44° C | 64% | 1011.7 hPa | 0 mm | - | 311 W/m² | - |
* Rain latest hour (hover to see other rain measurements)
** Current wind speed in m/s (hover to see current wind gust speed)